EW9119 Weather Reports


time (UTC)temp
C
wind
direction
speed
KPH
gust
KPH
rain 1hr
cm
rain 24hr
cm
rain mn
cm
humidity
%
barometer
mb
20260508101523 5 287 0.0 0.0 0.00 0.36 0.00 1 1014.6
20260508100018 5 287 0.0 0.0 0.00 0.36 0.00 1 1014.4
20260508094515 5 195 0.0 0.0 0.00 0.36 0.00 1 1014.2
20260508093010 5 195 0.0 0.0 0.00 0.36 0.00 1 1014.0
20260508091511 5 195 0.0 0.0 0.00 0.36 0.00 1 1014.0
20260508090003 6 195 0.0 0.0 0.00 0.36 0.00 1 1013.8
20260508084559 6 195 0.0 0.0 0.00 0.36 0.00 1 1013.7
20260508083052 6 195 0.0 0.0 0.00 0.36 0.00 1 1013.5
20260508081548 6 195 0.0 0.0 0.00 0.36 0.00 1 1013.4
20260508080044 6 195 0.0 0.0 0.00 0.36 0.00 1 1013.3
20260508074539 6 195 0.0 0.0 0.00 0.36 0.00 1 1013.0
20260508073040 6 195 0.0 0.0 0.00 0.36 0.00 1 1013.0
20260508071534 7 195 0.0 0.0 0.00 0.36 0.00 1 1012.9
20260508070027 7 195 0.0 0.0 0.00 0.36 0.00 1 1012.7
20260508064527 7 195 0.0 0.0 0.00 0.36 0.00 1 1012.6
20260508063018 7 195 0.0 0.0 0.00 0.36 0.00 1 1012.7
20260508061513 7 195 0.0 0.0 0.00 0.36 0.00 1 1012.7
20260508060008 7 195 0.0 0.0 0.00 0.36 0.00 1 1012.7
20260508054505 7 195 0.0 0.0 0.00 0.38 0.00 1 1012.6
20260508053108 7 195 0.0 0.0 0.00 0.38 0.00 1 1012.7
20260508051556 7 195 0.0 0.0 0.00 0.38 0.00 1 1012.5
20260508050051 8 195 0.0 0.0 0.00 0.38 0.00 1 1012.4
20260508044546 8 195 0.0 0.0 0.00 0.38 0.00 1 1012.2
20260508043055 8 195 0.0 0.0 0.00 0.38 0.00 1 1012.1
20260508041547 8 195 0.0 0.0 0.00 0.38 0.00 1 1011.9
20260508040038 8 195 0.0 0.0 0.00 0.38 0.00 1 1012.0
20260508034530 8 195 0.0 0.0 0.00 0.46 0.38 1 1011.8
20260508033024 9 195 0.0 0.0 0.00 0.46 0.38 1 1011.7
20260508031520 9 195 0.0 0.0 0.00 0.46 0.38 1 1011.4
20260508030015 10 195 0.0 0.0 0.00 0.46 0.38 1 1011.4
20260508024510 10 195 0.0 0.0 0.00 0.51 0.38 1 1011.4
20260508023007 10 195 0.0 0.0 0.00 0.51 0.38 1 1011.0
20260508021501 10 195 0.0 0.0 0.00 0.51 0.38 1 1010.8
20260508020103 11 195 0.0 0.0 0.00 0.51 0.38 1 1010.5
20260508014556 11 195 0.0 0.0 0.00 0.56 0.38 1 1010.3
20260508013056 11 195 0.0 0.0 0.00 0.56 0.38 1 1010.1
20260508011549 12 195 0.0 0.0 0.00 0.56 0.38 1 1009.9
20260508010040 12 195 0.0 0.0 0.00 0.56 0.38 1 1009.7
20260508004536 12 195 0.0 0.0 0.00 0.61 0.38 1 1009.6
20260508003032 13 195 0.0 0.0 0.00 0.61 0.38 1 1009.6
20260508001549 13 195 0.0 0.0 0.00 0.61 0.38 1 1009.6
20260508000023 13 240 0.0 0.0 0.00 0.61 0.38 1 1009.4
20260507234518 13 254 0.0 0.0 0.00 0.61 0.38 1 1009.4
20260507233017 13 263 0.0 0.0 0.00 0.61 0.38 1 1009.1
20260507231510 13 263 0.0 1.6 0.00 0.61 0.38 1 1008.7
20260507230007 13 68 0.0 0.0 0.00 0.61 0.38 1 1008.4
20260507224500 13 256 0.0 0.0 0.00 0.61 0.38 1 1008.4
20260507223057 13 239 0.0 0.0 0.00 0.61 0.38 1 1008.5
20260507221552 13 104 0.0 0.0 0.00 0.61 0.38 1 1008.2
20260507214551 13 9 0.0 1.6 0.00 0.61 0.38 1 1008.1
20260507213046 13 230 0.0 0.0 0.00 0.61 0.38 1 1008.1
20260507211545 13 132 0.0 0.0 0.00 0.61 0.38 1 1007.9
20260507210045 13 125 0.0 12.9 0.00 0.61 0.38 1 1008.0
20260507204548 13 194 0.0 0.0 0.03 0.61 0.38 1 1007.9
20260507203041 13 101 0.0 0.0 0.05 0.61 0.38 1 1008.0
20260507201542 13 154 0.0 0.0 0.05 0.61 0.38 1 1008.1
20260507200034 13 141 0.0 0.0 0.05 0.61 0.38 1 1008.0
20260507194528 13 92 0.0 1.6 0.03 0.58 0.36 1 1008.2
20260507193025 13 55 0.0 9.7 0.00 0.56 0.33 1 1008.2
20260507191521 13 347 0.0 0.0 0.00 0.56 0.33 1 1007.9
20260507190018 13 142 0.0 6.4 0.00 0.56 0.33 1 1008.1
20260507184511 14 230 0.0 4.8 0.00 0.56 0.33 1 1008.0
20260507183007 14 19 0.0 1.6 0.00 0.56 0.33 1 1008.1
20260507181502 15 105 0.0 11.3 0.03 0.56 0.33 1 1007.9
20260507180058 15 232 0.0 6.4 0.03 0.56 0.33 1 1007.8
20260507174557 15 246 0.0 8.0 0.03 0.56 0.33 1 1007.7
20260507173055 15 254 0.0 1.6 0.08 0.56 0.33 1 1007.8
20260507171545 15 240 0.0 4.8 0.13 0.56 0.33 1 1008.3
20260507170040 15 300 1.6 6.4 0.13 0.53 0.30 1 1008.1
20260507164522 16 5 0.0 1.6 0.13 0.53 0.30 1 1007.7
20260507163018 16 243 0.0 3.2 0.08 0.48 0.25 1 1007.6
20260507161514 16 128 0.0 1.6 0.05 0.46 0.23 1 1007.6
20260507160014 16 240 0.0 4.8 0.00 0.41 0.18 1 1007.8
20260507154506 16 184 0.0 6.4 0.00 0.41 0.18 1 1007.8
20260507153003 16 241 0.0 1.6 0.00 0.41 0.18 1 1008.1
20260507151557 16 200 0.0 8.0 0.00 0.41 0.18 1 1008.2
20260507150053 16 311 0.0 1.6 0.00 0.41 0.18 1 1008.3
20260507144548 17 267 0.0 0.0 0.00 0.41 0.18 1 1007.8
20260507143046 17 227 0.0 0.0 0.00 0.41 0.18 1 1007.5
20260507141539 17 323 0.0 0.0 0.03 0.41 0.18 1 1007.5
20260507140043 17 99 0.0 0.0 0.03 0.41 0.18 1 1007.4
20260507134541 17 23 0.0 0.0 0.05 0.41 0.18 1 1007.5
20260507133036 17 308 0.0 0.0 0.08 0.41 0.18 1 1007.3
20260507131550 17 11 0.0 0.0 0.08 0.38 0.15 1 1007.3
20260507130029 17 331 0.0 0.0 0.10 0.38 0.15 1 1008.0
20260507124524 17 28 0.0 0.0 0.08 0.36 0.13 1 1008.6
20260507123023 17 67 0.0 0.0 0.05 0.33 0.10 1 1008.4
20260507121522 17 46 0.0 0.0 0.05 0.30 0.08 1 1008.2
20260507120033 17 122 0.0 0.0 0.03 0.28 0.05 1 1008.2
20260507114514 17 98 0.0 0.0 0.03 0.28 0.05 1 1008.3
20260507113010 16 66 0.0 0.0 0.03 0.28 0.05 1 1008.1
20260507111507 16 11 0.0 0.0 0.00 0.25 0.03 1 1007.8
20260507110002 16 11 0.0 0.0 0.00 0.25 0.03 1 1007.9
20260507104557 16 11 0.0 0.0 0.00 0.25 0.03 1 1007.8
20260507103054 16 11 0.0 0.0 0.00 0.25 0.03 1 1007.8